TimeCDT,TemperatureF,Dew PointF,Humidity,Sea Level PressureIn,VisibilityMPH,Wind Direction,Wind SpeedMPH,Gust SpeedMPH,PrecipitationIn,Events,Conditions,WindDirDegrees,DateUTC
12:15 AM,68.0,64.9,90,30.10,10.0,South,6.9,-,N/A,,Scattered Clouds,170,2013-06-22 05:15:00
12:35 AM,67.6,64.9,91,30.09,10.0,South,3.5,-,N/A,,Scattered Clouds,180,2013-06-22 05:35:00
12:55 AM,67.5,64.8,91,30.08,10.0,SSW,4.6,-,N/A,,Scattered Clouds,200,2013-06-22 05:55:00
1:15 AM,67.5,64.9,92,30.06,10.0,South,3.5,-,N/A,,Mostly Cloudy,190,2013-06-22 06:15:00
1:35 AM,68.0,64.6,89,30.06,10.0,Calm,Calm,-,N/A,,Mostly Cloudy,0,2013-06-22 06:35:00
1:55 AM,68.0,64.4,88,30.05,10.0,South,5.8,-,N/A,,Mostly Cloudy,190,2013-06-22 06:55:00
2:15 AM,68.4,63.9,85,30.05,10.0,South,4.6,-,N/A,,Scattered Clouds,190,2013-06-22 07:15:00
2:35 AM,67.8,64.0,88,30.04,10.0,South,6.9,-,N/A,,Clear,190,2013-06-22 07:35:00
2:55 AM,68.0,63.7,86,30.04,10.0,South,5.8,-,N/A,,Clear,190,2013-06-22 07:55:00
3:15 AM,68.0,63.9,87,30.04,10.0,SSW,4.6,-,N/A,,Scattered Clouds,200,2013-06-22 08:15:00
3:35 AM,68.0,64.4,88,30.04,10.0,SSW,4.6,-,N/A,,Mostly Cloudy,200,2013-06-22 08:35:00
3:55 AM,68.0,64.9,90,30.04,10.0,SSW,6.9,-,N/A,,Overcast,210,2013-06-22 08:55:00
4:15 AM,68.2,65.3,90,30.05,10.0,SSW,5.8,-,N/A,,Overcast,210,2013-06-22 09:15:00
4:35 AM,68.4,65.5,90,30.05,7.0,SW,4.6,-,N/A,,Mostly Cloudy,220,2013-06-22 09:35:00
4:55 AM,68.4,65.8,92,30.05,7.0,SSW,3.5,-,N/A,,Mostly Cloudy,210,2013-06-22 09:55:00
5:15 AM,68.2,66.0,93,30.07,7.0,West,4.6,-,N/A,,Mostly Cloudy,260,2013-06-22 10:15:00
5:35 AM,68.4,66.2,93,30.07,7.0,Calm,Calm,-,N/A,,Scattered Clouds,0,2013-06-22 10:35:00
5:55 AM,68.2,66.2,93,30.08,5.0,Calm,Calm,-,N/A,,Scattered Clouds,0,2013-06-22 10:55:00
6:15 AM,68.9,66.6,92,30.08,7.0,WSW,4.6,-,N/A,,Clear,240,2013-06-22 11:15:00
6:35 AM,68.9,66.7,93,30.10,7.0,West,4.6,-,N/A,,Scattered Clouds,280,2013-06-22 11:35:00
6:55 AM,69.3,67.1,93,30.10,7.0,SW,3.5,-,N/A,,Scattered Clouds,230,2013-06-22 11:55:00
7:15 AM,70.2,67.3,91,30.09,7.0,SSW,8.1,-,N/A,,Clear,210,2013-06-22 12:15:00
7:35 AM,70.9,68.0,91,30.09,7.0,SW,10.4,-,N/A,,Clear,230,2013-06-22 12:35:00
7:55 AM,71.6,68.2,89,30.10,7.0,SW,9.2,-,N/A,,Scattered Clouds,230,2013-06-22 12:55:00
8:15 AM,72.5,68.2,86,30.10,10.0,WSW,6.9,-,N/A,,Mostly Cloudy,240,2013-06-22 13:15:00
8:35 AM,73.9,68.7,84,30.11,7.0,WSW,9.2,-,N/A,,Mostly Cloudy,250,2013-06-22 13:35:00
8:55 AM,75.2,70.0,84,30.11,10.0,WSW,6.9,-,N/A,,Mostly Cloudy,250,2013-06-22 13:55:00
9:35 AM,75.4,70.2,84,30.10,10.0,WSW,4.6,-,N/A,,Clear,240,2013-06-22 14:35:00
9:55 AM,75.2,70.2,84,30.10,10.0,WSW,5.8,-,N/A,,Clear,240,2013-06-22 14:55:00
10:15 AM,75.0,70.5,86,30.09,10.0,SSW,5.8,-,N/A,,Clear,210,2013-06-22 15:15:00
10:35 AM,75.2,69.8,83,30.10,10.0,SW,6.9,-,N/A,,Clear,220,2013-06-22 15:35:00
10:55 AM,75.7,70.7,84,30.10,7.0,West,9.2,-,N/A,,Clear,270,2013-06-22 15:55:00
11:15 AM,76.1,70.9,84,30.11,7.0,SSW,6.9,-,N/A,,Clear,200,2013-06-22 16:15:00
11:35 AM,76.5,71.4,84,30.09,7.0,SW,8.1,-,N/A,,Clear,220,2013-06-22 16:35:00
11:55 AM,77.0,71.4,83,30.10,7.0,WSW,5.8,-,N/A,,Clear,240,2013-06-22 16:55:00
12:15 PM,78.3,72.0,81,30.10,7.0,WSW,4.6,-,N/A,,Clear,250,2013-06-22 17:15:00
12:35 PM,79.0,71.6,78,30.11,7.0,WSW,5.8,-,N/A,,Clear,250,2013-06-22 17:35:00
12:55 PM,79.7,70.5,73,30.11,10.0,West,8.1,-,N/A,,Scattered Clouds,260,2013-06-22 17:55:00
1:15 PM,79.7,69.4,71,30.10,10.0,SW,8.1,-,N/A,,Mostly Cloudy,220,2013-06-22 18:15:00
1:35 PM,79.5,70.2,73,30.11,10.0,WSW,6.9,-,N/A,,Scattered Clouds,250,2013-06-22 18:35:00
1:55 PM,79.7,71.2,75,30.09,10.0,NW,5.8,-,N/A,,Scattered Clouds,320,2013-06-22 18:55:00
2:15 PM,79.9,72.3,78,30.08,7.0,Calm,Calm,-,N/A,,Scattered Clouds,0,2013-06-22 19:15:00
2:35 PM,81.1,71.6,73,30.07,10.0,WSW,4.6,-,N/A,,Scattered Clouds,240,2013-06-22 19:35:00
2:55 PM,81.3,70.5,70,30.05,10.0,WSW,10.4,-,N/A,,Scattered Clouds,250,2013-06-22 19:55:00
3:15 PM,80.6,69.1,68,30.03,10.0,SW,10.4,-,N/A,,Clear,230,2013-06-22 20:15:00
3:35 PM,80.2,70.5,72,30.01,10.0,SSW,4.6,-,N/A,,Clear,200,2013-06-22 20:35:00
3:55 PM,80.6,70.9,72,30.01,10.0,South,3.5,-,N/A,,Clear,190,2013-06-22 20:55:00
4:15 PM,81.3,70.7,70,30.00,10.0,South,4.6,-,N/A,,Clear,190,2013-06-22 21:15:00
4:35 PM,82.9,71.2,68,30.00,10.0,South,5.8,-,N/A,,Clear,170,2013-06-22 21:35:00
4:55 PM,82.4,68.7,63,30.01,10.0,SSW,8.1,-,N/A,,Clear,210,2013-06-22 21:55:00
5:15 PM,82.9,69.4,64,30.01,10.0,SSW,9.2,-,N/A,,Clear,210,2013-06-22 22:15:00
5:35 PM,82.9,69.6,64,30.01,10.0,NW,8.1,-,N/A,,Clear,310,2013-06-22 22:35:00
5:55 PM,82.6,69.3,64,30.01,10.0,SSW,6.9,-,N/A,,Clear,210,2013-06-22 22:55:00
6:15 PM,82.2,68.5,63,30.01,10.0,South,8.1,-,N/A,,Clear,190,2013-06-22 23:15:00
6:35 PM,81.5,67.1,61,30.01,10.0,SSW,6.9,-,N/A,,Clear,200,2013-06-22 23:35:00
6:55 PM,80.8,67.6,64,30.02,10.0,SW,10.4,-,N/A,,Clear,220,2013-06-22 23:55:00
7:15 PM,79.9,67.5,66,30.02,10.0,SW,8.1,-,N/A,,Clear,220,2013-06-23 00:15:00
7:35 PM,79.0,67.8,69,30.03,10.0,WSW,10.4,-,N/A,,Clear,240,2013-06-23 00:35:00
7:55 PM,77.7,68.2,72,30.04,10.0,WSW,10.4,-,N/A,,Clear,250,2013-06-23 00:55:00
8:15 PM,76.1,67.1,74,30.05,10.0,SW,6.9,-,N/A,,Clear,220,2013-06-23 01:15:00
8:35 PM,75.2,65.8,73,30.04,10.0,SSW,5.8,-,N/A,,Clear,210,2013-06-23 01:35:00
8:55 PM,73.9,65.1,74,30.04,10.0,SW,8.1,-,N/A,,Clear,220,2013-06-23 01:55:00
9:15 PM,73.6,64.9,74,30.05,10.0,SSW,6.9,-,N/A,,Clear,210,2013-06-23 02:15:00
9:35 PM,72.5,64.2,75,30.05,10.0,SSW,6.9,-,N/A,,Clear,200,2013-06-23 02:35:00
9:55 PM,71.8,63.5,75,30.06,10.0,SSW,5.8,-,N/A,,Clear,210,2013-06-23 02:55:00
10:15 PM,71.1,64.2,79,30.07,10.0,SW,6.9,-,N/A,,Clear,230,2013-06-23 03:15:00
10:35 PM,70.9,62.6,75,30.08,10.0,SW,8.1,-,N/A,,Clear,220,2013-06-23 03:35:00
10:55 PM,70.3,63.0,77,30.08,10.0,Calm,Calm,-,N/A,,Clear,0,2013-06-23 03:55:00
11:15 PM,69.6,63.5,81,30.08,10.0,Calm,Calm,-,N/A,,Clear,0,2013-06-23 04:15:00
11:35 PM,69.1,63.7,83,30.08,10.0,SSW,4.6,-,N/A,,Clear,210,2013-06-23 04:35:00
11:55 PM,68.7,63.7,84,30.07,10.0,Calm,Calm,-,N/A,,Clear,0,2013-06-23 04:55:00